Terug naar catalogus

STARLINK-33734

ActiefCommunicatieVLEO
NORAD 63367·PAYLOAD·🇺🇸 United States

Gelanceerd Mar 26, 2025 vanaf Vandenberg Space Force Base

Loading…

Volgende Passages (komende 24 uur)

TLE

VersSource: CelesTrak SupGP

Epoch: Sep 14, 2026, 20:43 UTC

1 63367C 25063E   26257.86368056  .00051466  00000+0  15211-2 0  2575
2 63367  53.1567 261.7665 0001211  83.5762 146.3977 15.34354119    17

Volg STARLINK-33734 in realtime met AllMySat

Download on the App Store